Tracking 30743 objects as of 20-Jun-2025
HD Live streaming from Space Station
objects crossing your sky now

STARLINK-30056

Track STARLINK-30056 now!
10-day predictions
STARLINK-30056 is classified as:


NORAD ID: 57622
Int'l Code: 2023-119W
Perigee: 565.5 km
Apogee: 566.9 km
Inclination: 43.0 °
Period: 95.8 minutes
Semi major axis: 6937 km
RCS: Unknown
Launch date: August 11, 2023
Source: United States (US)
Launch site: AIR FORCE EASTERN TEST RANGE (AFETR)
Your satellite tracking list
Your tracking list is empty




NASA's NSSDC Master Catalog

Two Line Element Set (TLE):
1 57622U 23119W   25170.44395912 -.00000084  00000-0  88846-5 0  9992
2 57622  43.0037  72.2705 0001010 263.1753  96.8974 15.02536122103489
Source of the keplerian elements: AFSPC